World > North America > United States > New York > Rural Grove

Hourly Rural Grove, NY Regional Weather

Feedback E-mail the Weather

Quick WX

Rural Grove, NY Weather Maps

°F °C°F °C
Rural Grove Weather Map
UTC Time: 8/16/2022, 17:15
Your Time:

Rural Grove, NY Regional Weather

Expires:202208161800;;147640
ASUS41 KALY 161710
RWRALY

NEW YORK STATE HOURLY WEATHER ROUNDUP
NATIONAL WEATHER SERVICE ALBANY NY
100 PM EDT TUE AUG 16 2022

NOTE: "FAIR" INDICATES FEW OR NO CLOUDS BELOW 12,000 FEET WITH NO
SIGNIFICANT WEATHER AND/OR NO OBSTRUCTIONS TO VISIBILITY.


NYZ032-033-038>043-046>054-057>066-NYZ062>081-082-084-161800-
EAST

  
CITY           SKY/WX    TMP DP  RH WIND       PRES   REMARKS
ALBANY         PTSUNNY   82  55  39 CALM      30.06F                  
GLENS FALLS    MOSUNNY   80  53  39 CALM      30.06F                  
POUGHKEEPSIE   MOSUNNY   85  50  29 SE8G18    30.01F                  
NEWBURGH       MOSUNNY   82  52  34 NE9G18    30.04F                  
MONTGOMERY     MOSUNNY   82  51  34 NE13      30.03F                  
ISLIP          PTSUNNY   81  57  43 NE14      30.00F                  
NEW YORK CITY  PTSUNNY   79  56  45 NE14      30.02F                  
CENTRAL PARK   MOSUNNY   81  53  37 E9        30.05F                  
$$


SKY/WX - Weather  TMP - Temperature  DP - Dew Point  RH - Humidity
WIND - Wind Direction/Speed PRES - Barometric Pressure VSB - Visibility
WCI - Wind Chill Index E13G22 Wind - East Wind 13 mph/Gusts of 22 mph

Trending Headlines

Rural Grove Radar Loop



Rural Grove Quick Facts


National Two Day Weather Forecast


E-mail the Rural Grove Weather Forecast

Voice your opinion or tell us about page issues...